Home   Weather   Antofagasta   Past weeks

Flag for Chile Past Weather in Antofagasta, Chile — Yesterday and Last 2 Weeks

Now
73 °F

Passing clouds.


Feels Like: 74 °F
Forecast: 70 / 79 °F
Wind: 6 mph from South

Location: Antofagasta Airport

Current Time: Jan 19, 2017 at 11:01:50 pm

Latest Report: Jan 19, 2017 at 10:00 pm


Visibility: N/A

Pressure: 29.89 "Hg

Humidity: 78%

Dew Point: 66 °F

Location of AntofagastaLocation

Past Weather in Antofagasta — Graph

°F

Antofagasta Temperature Yesterday

Maximum temperature yesterday: 77 °F (at 11:00 am)
Minimum temperature yesterday: 68 °F (at 3:00 am)
Average temperature yesterday: 72 °F

High & Low Weather Summary for the Past Weeks

 TemperatureHumidityPressure
High82 °F (Jan 19, 1:00 pm)94% (Jan 8, 3:00 am)29.98 "Hg (Jan 8, 3:00 am)
Low64 °F (Jan 6, 6:00 am)45% (Jan 5, 12:00 pm)29.80 "Hg (Jan 14, 5:00 pm)
Average71 °F73%29.90 "Hg
* Reported Jan 4 11:00 pm — Jan 19 9:00 pm, Antofagasta, Weather by CustomWeather, © 2017

Note: Actual official high and low records may vary slightly from our data, if they occured in-between our weather recording intervals... More about our weather records

Advertising

Antofagasta Weather History for the Previous 24 Hours

Scroll right to see more
 ConditionsComfort  
Time TempWeatherWind HumidityBarometerVisibility
9:00 pm
Thu, Jan 19
75 °FPassing clouds.7 mph69%29.89 "HgN/A
8:00 pm75 °FScattered clouds.10 mph69%29.86 "HgN/A
7:00 pm75 °FPartly sunny.10 mph69%29.86 "HgN/A
6:00 pm75 °FScattered clouds.12 mph74%29.83 "HgN/A
5:00 pm75 °FScattered clouds.13 mph74%29.83 "HgN/A
4:00 pm77 °FScattered clouds.15 mph74%29.86 "HgN/A
3:00 pm79 °FScattered clouds.20 mph70%29.89 "HgN/A
2:00 pm82 °FPassing clouds.10 mph51%29.89 "HgN/A
1:00 pm82 °FPassing clouds.12 mph51%29.89 "HgN/A
12:00 pm81 °FPassing clouds.12 mph58%29.92 "HgN/A
11:00 am81 °FPassing clouds.7 mph54%29.92 "HgN/A
10:00 am77 °FPartly sunny.2 mph65%29.95 "HgN/A
9:00 am75 °FPartly sunny.7 mph69%29.95 "HgN/A
8:00 am73 °FPartly sunny.5 mph74%29.95 "HgN/A
7:00 am73 °FPassing clouds.6 mph69%29.92 "HgN/A
6:00 am73 °FPassing clouds.8 mph69%29.92 "HgN/A
5:00 am73 °FPartly cloudy.8 mph69%29.92 "HgN/A
4:00 am73 °FPassing clouds.5 mph69%29.92 "HgN/A
3:00 am72 °FClear.3 mph78%29.92 "Hg10 mi
2:00 am72 °FClear.1 mph78%29.92 "Hg10 mi
1:00 am72 °FClear.3 mph78%29.92 "Hg10 mi
12:00 am72 °FClear.3 mph78%29.89 "Hg10 mi
11:00 pm
Wed, Jan 18
72 °FClear.6 mph78%29.89 "Hg10 mi
Weather by CustomWeather, © 2017

See weather overviewHow to use our weather pages